Flag for Germany Weather past 2 weeks in Bietigheim-Bissingen, Baden-Württemberg, Germany

Now
61 °F

Fog.


Feels Like: 61 °F
Forecast: 56 / 80 °F
Wind: 3 mph from East

Location: Stuttgart-Echterdingen

Current Time: Jul 23, 2014 at 9:35:20 AM

Latest Report: Jul 23, 2014 at 7:50 AM


Visibility: 2 mi

Pressure: 30.01 "Hg

Humidity: 100%

Dew point: 61 °F

Location of Bietigheim-BissingenLocation

Historic Weather in Bietigheim-Bissingen — Graph

°F

Bietigheim-Bissingen temperature yesterday

Maximum temperature yesterday: 75 °F (at 4:20 PM)
Minimum temperature yesterday: 64 °F (at 1:50 AM)
Average temperature yesterday: 67 °F

Past Weeks' High & Low Weather Summary

 TemperatureHumidityPressure
High91 °F (Jul 19, 3:50 PM)100% (Jul 8, 7:20 AM)30.21 "Hg (Jul 8, 7:20 AM)
Low52 °F (Jul 9, 9:20 PM)22% (Jul 18, 2:50 PM)29.77 "Hg (Jul 10, 1:50 AM)
Average67 °F74%29.97 "Hg
* Reported Jul 8 7:20 AM — Jul 23 7:20 AM, Bietigheim-Bissingen, Weather by CustomWeather, © 2014

Note: Actual official high and low records may vary slightly from our data, if they occured in-between our weather recording intervals... More about our weather records

Advertising

Bietigheim-Bissingen weather history for previous 24 hours

 ConditionsComfort  
Time TempWeatherWind HumidityBarometerVisibility
7:20 AM
Jul 23
61 °FFog.2 mph100%30.01 "Hg1 mi
6:50 AM61 °FFog.1 mph100%30.01 "Hg0 mi
6:20 AM61 °FFog.1 mph100%30.01 "Hg0 mi
5:50 AM61 °FFog.1 mph100%30.01 "Hg0 mi
5:20 AM61 °FFog.1 mph100%30.01 "Hg0 mi
4:50 AM61 °FFog.1 mph100%30.01 "Hg0 mi
4:20 AM61 °FFog.1 mph100%30.01 "Hg0 mi
3:50 AM61 °FFog.1 mph100%30.01 "Hg0 mi
3:20 AM61 °FFog.1 mph100%30.01 "Hg0 mi
2:50 AM61 °FFog.1 mph100%30.01 "Hg0 mi
2:20 AM61 °FSleet. Overcast.1 mph100%30.01 "Hg0 mi
1:50 AM61 °FSleet. Overcast.1 mph100%30.01 "Hg2 mi
6:50 PM
Jul 22
70 °FPartly sunny.5 mph88%29.98 "HgN/A
6:20 PM68 °FThundershowers. Scattered clouds.2 mph88%29.98 "HgN/A
5:50 PM68 °FThundershowers. Broken clouds.7 mph94%29.98 "Hg1 mi
5:20 PM73 °FThundershowers. Scattered clouds.5 mph78%29.95 "HgN/A
4:50 PM75 °FThundershowers. Scattered clouds.9 mph74%29.95 "HgN/A
4:20 PM75 °FBroken clouds.6 mph74%29.95 "HgN/A
3:50 PM73 °FSprinkles. Broken clouds.8 mph74%29.95 "HgN/A
3:20 PM73 °FScattered clouds.8 mph78%29.95 "HgN/A
2:50 PM73 °FBroken clouds.9 mph78%29.95 "HgN/A
2:20 PM70 °FBroken clouds.9 mph94%29.95 "Hg5 mi
1:50 PM68 °FSprinkles. Broken clouds.8 mph94%29.95 "Hg4 mi
1:20 PM68 °FRain showers. Broken clouds.8 mph94%29.95 "Hg2 mi
12:50 PM68 °FSprinkles. Broken clouds.7 mph94%29.95 "Hg4 mi
12:20 PM68 °FRain showers. Broken clouds.2 mph94%29.95 "Hg4 mi
11:50 AM68 °FSprinkles. Broken clouds.7 mph94%29.95 "Hg5 mi
11:20 AM68 °FBroken clouds.7 mph94%29.92 "Hg6 mi
10:50 AM68 °FBroken clouds.8 mph94%29.92 "Hg6 mi
10:20 AM66 °FBroken clouds.9 mph94%29.92 "Hg5 mi
9:50 AM66 °FLight rain. Broken clouds.9 mph94%29.92 "Hg4 mi
9:20 AM66 °FLight rain. Broken clouds.9 mph94%29.89 "Hg4 mi
Weather by CustomWeather, © 2014

See weather overviewHow to use our weather pages